Wind_Speed
51 54 51 51 53 50 50 52 53 53 54 53 52 46 44 41 40 39 34 31 33 29 27 28 28 32 34 29 26 26 27 29 31 33 35 36 36 31 30 31 32 34 38 39
53 54 48 51 53 54 57 56 52 50 51 51 52 47 47 41 40 39 36 33 34 29 29 27 28 31 31 29 28 28 29 31 33 36 36 37 33 30 30 31 33 38 40 40
55 47 51 56 57 59 58 57 52 42 44 50 53 50 48 41 38 39 36 34 33 29 29 29 29 30 30 29 29 30 30 32 36 38 37 31 30 31 35 36 38 39 40 41
51 48 53 58 63 62 62 57 54 42 34 51 51 51 46 42 42 41 38 32 33 29 28 27 28 29 31 30 30 28 30 33 36 32 30 31 33 34 35 38 40 41 42 41
43 38 39 45 50 60 63 55 49 42 40 48 53 49 43 47 41 39 35 34 33 30 29 27 28 28 27 27 27 28 30 32 31 30 32 34 36 37 38 40 41 41 41 40
30 30 35 35 41 56 53 53 53 50 34 45 47 40 40 44 35 35 36 35 32 29 29 28 28 28 26 26 28 29 31 32 33 34 36 37 38 38 39 41 41 41 40 40
25 25 31 38 38 57 57 53 36 53 49 48 41 43 36 37 36 34 33 33 29 26 30 29 29 28 27 29 30 32 33 34 35 37 38 37 38 39 40 41 40 40 40 40
24 26 30 31 47 53 58 58 41 42 53 44 45 45 39 37 30 32 31 30 27 26 28 28 26 27 28 31 32 33 34 35 36 38 38 38 40 40 39 39 39 39 40 41
22 22 31 43 51 57 65 45 29 34 51 44 40 37 35 32 29 28 29 24 25 27 27 25 24 27 28 30 32 33 33 35 36 38 39 39 39 37 38 38 39 40 42 45
9 16 36 53 47 42 38 35 34 35 34 42 37 35 35 29 27 26 22 20 25 25 26 25 25 26 27 30 31 33 35 36 37 37 38 37 37 37 38 39 40 43 46 50
18 21 27 51 48 28 40 39 42 26 35 30 36 33 32 24 21 21 20 22 23 24 28 29 27 27 30 32 33 33 34 37 37 37 35 36 37 37 38 40 43 47 50 53
22 14 28 44 38 33 36 38 34 37 30 30 26 26 24 21 20 21 21 23 26 27 28 27 27 30 33 33 33 34 35 36 36 35 36 37 38 38 41 44 47 50 54 57
16 17 25 40 29 41 30 34 33 32 32 28 26 25 23 21 19 21 23 25 24 24 25 26 28 31 32 33 34 34 34 34 34 36 37 38 39 42 44 47 50 54 58 63
17 25 20 40 31 21 27 31 37 36 32 29 27 26 24 21 20 22 22 20 21 21 23 26 29 32 33 33 32 32 32 34 36 37 38 40 41 44 47 50 55 59 64 68
13 15 14 22 39 26 22 15 19 30 25 26 25 26 24 23 24 25 25 24 24 25 27 29 31 33 32 32 32 33 34 37 38 39 40 41 43 47 50 54 59 64 69 72
21 20 20 16 14 30 25 24 21 23 25 24 26 20 23 27 24 22 27 25 26 28 30 31 32 32 32 32 33 35 37 38 39 40 41 42 46 50 55 59 64 69 73 74
14 17 18 18 14 17 23 24 25 20 19 19 19 16 23 24 25 28 27 28 28 28 27 29 31 32 32 33 35 36 37 39 39 40 42 44 50 55 59 64 69 73 70 63
11 12 14 16 17 19 21 22 22 24 26 25 24 23 29 27 27 26 28 29 29 27 27 29 31 32 33 34 35 37 39 40 44 41 45 49 55 59 64 69 73 66 62 61
16 13 9 16 19 19 20 19 20 24 23 29 29 30 35 30 28 29 30 30 30 29 28 30 31 32 33 35 38 41 42 42 41 45 49 54 58 63 68 71 62 60 61 65
21 18 21 21 21 18 17 17 17 19 22 25 27 30 31 28 31 28 29 28 28 28 29 29 30 32 35 37 37 35 39 41 45 49 53 57 63 68 67 61 59 61 66 72
20 22 18 16 14 14 12 16 17 16 18 23 25 25 25 27 28 27 28 29 30 29 29 30 33 35 37 34 36 37 40 44 49 52 56 62 67 62 60 59 61 66 72 74
18 16 14 13 12 13 16 11 14 14 18 20 22 23 24 25 26 26 25 26 27 27 28 28 30 32 34 35 37 40 44 48 50 56 61 63 58 58 58 61 66 71 76 80
14 15 16 17 18 13 14 13 12 17 20 20 21 23 23 22 23 23 24 26 28 29 29 31 32 33 34 36 40 44 46 50 55 59 57 55 55 57 60 65 70 75 81 86
19 18 20 17 18 17 14 14 14 14 15 17 18 20 24 26 27 26 24 25 25 27 29 30 31 33 36 40 42 45 50 55 56 52 52 53 54 59 64 70 77 82 86 90
26 24 20 18 17 19 16 16 14 13 13 13 13 13 15 16 18 21 23 25 26 28 30 32 34 37 39 41 44 49 54 51 48 49 50 53 57 63 69 74 81 85 90 96
19 18 17 17 18 13 14 13 13 11 9 10 12 14 16 18 20 22 24 27 29 31 32 34 36 37 40 44 50 51 46 46 47 49 52 56 62 68 74 79 82 88 92 97
Wind_Direction
251 250 248 248 245 245 248 243 238 238 234 232 235 236 234 234 239 238 238 241 244 235 238 242 245 245 246 248 252 257 264 270 278 284 288 291 292 287 288 289 293 298 299 300
253 251 254 248 244 241 237 238 236 233 232 235 235 231 232 234 239 241 239 242 244 231 240 242 248 250 248 249 254 262 268 272 279 285 287 288 281 281 288 292 293 294 297 300
259 258 249 247 246 237 235 233 229 230 232 232 234 232 230 233 239 239 240 240 242 230 240 241 248 250 249 251 255 262 269 276 282 286 287 282 287 287 289 290 293 296 297 299
259 256 255 250 244 234 231 230 220 211 222 228 231 231 230 231 233 232 235 234 237 231 237 240 249 251 249 253 258 264 273 281 286 285 283 282 283 286 290 292 294 297 299 301
265 258 244 237 234 220 219 207 208 210 225 230 230 232 220 233 232 234 235 233 236 233 238 243 249 251 249 252 258 267 278 286 283 280 280 281 283 286 290 292 294 297 299 300
242 228 233 235 220 205 197 195 191 212 220 222 220 226 223 239 233 235 235 233 234 234 238 246 247 246 246 253 262 272 280 282 279 279 279 281 285 289 291 294 297 300 298 299
231 228 223 222 195 194 198 199 208 198 213 216 221 227 225 237 235 232 233 233 234 236 239 247 247 246 247 255 265 271 274 276 277 279 281 285 288 290 292 296 298 297 298 298
231 230 224 193 178 180 180 186 197 193 202 213 219 221 223 234 236 236 233 235 236 240 241 248 250 252 254 259 265 269 273 276 279 282 285 287 288 292 295 297 295 296 297 299
215 215 182 182 178 180 181 190 173 196 221 220 222 221 227 236 230 234 234 236 239 242 245 253 256 256 258 261 265 269 273 277 281 284 286 287 290 293 295 293 294 296 298 298
129 188 187 178 176 176 205 200 199 201 203 210 215 220 228 231 231 237 237 238 238 242 249 255 257 260 262 264 267 270 276 281 283 284 284 287 290 291 291 293 296 298 299 300
137 145 188 188 176 185 186 193 184 167 189 193 203 211 220 230 229 234 233 239 242 244 249 255 260 264 265 268 271 276 280 281 283 284 286 288 289 290 292 295 298 299 301 304
149 147 179 198 192 174 185 183 179 193 186 189 198 209 212 221 224 230 235 237 242 246 251 255 258 261 265 271 275 278 280 282 282 284 286 288 290 292 294 297 301 303 306 308
117 142 180 200 191 205 195 195 200 192 192 191 203 213 215 218 220 225 232 237 245 253 257 260 263 266 270 275 277 278 279 280 283 286 288 290 292 296 299 302 304 307 309 311
104 135 173 207 210 190 192 211 192 196 200 204 210 216 217 221 222 229 239 247 253 257 259 261 264 267 271 274 276 278 281 283 286 289 290 293 296 299 301 305 307 310 311 312
157 130 132 192 220 205 204 203 186 191 202 209 217 225 232 238 244 243 250 257 264 267 267 270 272 274 278 278 280 283 283 286 289 292 294 297 299 301 304 307 310 311 313 313
164 150 139 167 174 189 202 207 206 215 213 208 218 221 238 242 247 251 256 263 269 273 275 275 278 282 283 283 282 283 286 289 290 293 296 298 301 303 306 309 311 313 313 312
171 169 186 188 200 193 208 223 217 248 225 221 213 227 248 246 253 254 262 269 273 277 276 276 276 278 277 278 281 285 286 288 291 294 299 302 303 305 308 311 313 312 312 311
187 200 215 212 204 208 217 224 228 231 229 231 230 241 252 253 261 275 272 272 278 277 274 274 273 275 279 283 285 285 288 289 293 300 302 303 305 308 311 312 312 311 311 313
203 213 206 219 222 232 230 231 231 232 228 229 232 239 249 257 266 268 271 270 267 271 272 273 277 281 283 285 285 287 288 295 301 300 302 304 308 311 311 311 310 311 312 315
213 225 233 231 233 235 240 242 238 233 235 235 239 247 253 261 262 262 262 264 269 272 276 279 281 283 286 287 292 295 298 298 298 300 303 308 310 310 310 310 311 312 314 317
225 231 233 234 230 225 217 229 234 231 226 236 242 247 247 248 254 254 259 262 267 271 276 281 283 281 286 289 292 294 295 296 299 304 308 309 309 309 310 311 312 314 318 318
232 216 219 213 184 186 202 222 227 226 224 231 238 240 243 245 248 255 258 262 269 274 281 287 291 291 289 291 293 293 296 300 305 308 309 309 308 310 311 312 314 317 319 319
222 225 219 226 226 242 231 235 241 228 230 228 234 241 245 249 253 259 269 275 278 280 281 286 287 288 288 290 293 296 300 305 307 307 308 308 310 311 312 314 316 319 320 320
228 231 233 239 225 230 243 239 250 250 244 243 252 254 257 260 266 273 276 279 281 282 281 283 285 287 289 291 295 300 304 306 307 307 308 310 311 312 315 317 319 320 320 319
234 240 236 234 225 233 243 244 242 242 234 242 252 258 262 269 274 277 279 281 283 283 283 285 287 290 293 297 300 303 305 306 305 308 310 310 312 316 319 320 320 320 319 320
217 224 235 234 229 219 213 219 234 240 247 258 265 271 274 276 279 283 285 286 287 287 287 289 293 294 298 301 303 305 304 305 308 309 311 313 316 319 320 320 320 320 321 322
Height
5650 5651 5663 5672 5674 5682 5684 5688 5695 5706 5715 5718 5723 5733 5741 5744 5747 5753 5758 5761 5762 5767 5770 5771 5772 5774 5777 5780 5782 5784 5784 5785 5784 5783 5782 5781 5779 5777 5776 5774 5772 5770 5767 5765
5633 5640 5657 5654 5658 5662 5669 5676 5686 5697 5705 5711 5716 5725 5731 5737 5741 5747 5753 5756 5756 5763 5763 5765 5767 5770 5773 5775 5778 5778 5779 5779 5778 5777 5776 5775 5773 5771 5769 5767 5765 5763 5760 5757
5619 5636 5630 5633 5642 5646 5656 5665 5682 5694 5700 5704 5708 5716 5723 5732 5737 5742 5747 5750 5749 5757 5758 5760 5763 5765 5768 5770 5772 5772 5773 5772 5772 5770 5769 5768 5767 5766 5764 5761 5759 5756 5753 5749
5602 5614 5613 5616 5621 5634 5643 5662 5677 5687 5692 5694 5701 5707 5718 5725 5727 5732 5738 5743 5744 5750 5753 5756 5758 5760 5762 5765 5767 5767 5767 5767 5765 5763 5763 5762 5760 5759 5756 5754 5751 5748 5745 5740
5596 5597 5597 5597 5607 5617 5636 5654 5669 5685 5687 5690 5694 5702 5715 5715 5722 5728 5733 5736 5740 5745 5748 5750 5753 5755 5758 5760 5761 5761 5761 5760 5759 5758 5757 5755 5754 5751 5749 5746 5743 5740 5736 5733
5583 5584 5586 5591 5597 5608 5633 5642 5662 5666 5670 5676 5688 5697 5709 5708 5720 5723 5727 5729 5735 5739 5742 5745 5748 5750 5752 5754 5755 5755 5754 5753 5752 5751 5750 5748 5746 5743 5741 5738 5734 5731 5728 5724
5577 5579 5581 5584 5590 5603 5618 5630 5643 5660 5661 5671 5685 5693 5702 5704 5710 5715 5723 5725 5730 5734 5737 5740 5742 5744 5746 5748 5749 5749 5747 5747 5746 5744 5743 5741 5738 5736 5733 5730 5726 5722 5719 5715
5572 5577 5578 5583 5589 5603 5614 5624 5644 5647 5656 5669 5678 5683 5694 5697 5708 5712 5717 5720 5725 5728 5732 5734 5737 5738 5740 5742 5742 5741 5741 5740 5739 5737 5735 5733 5730 5728 5725 5721 5718 5714 5710 5706
5573 5577 5580 5584 5591 5601 5615 5622 5641 5650 5661 5670 5677 5685 5691 5695 5701 5706 5711 5717 5720 5723 5727 5729 5731 5733 5734 5735 5735 5734 5734 5733 5732 5730 5727 5725 5722 5720 5717 5714 5710 5706 5702 5697
5572 5578 5584 5587 5597 5608 5620 5631 5637 5647 5655 5663 5674 5680 5687 5693 5698 5702 5708 5712 5714 5718 5721 5724 5726 5726 5727 5728 5728 5728 5727 5726 5724 5722 5719 5717 5715 5712 5709 5705 5701 5696 5691 5686
5574 5580 5590 5592 5599 5607 5614 5627 5639 5645 5653 5662 5669 5675 5684 5691 5695 5699 5703 5707 5709 5713 5716 5718 5720 5721 5721 5721 5721 5721 5720 5719 5716 5714 5711 5709 5707 5703 5700 5696 5692 5687 5680 5674
5577 5585 5595 5596 5604 5611 5620 5626 5636 5646 5654 5660 5667 5675 5682 5686 5691 5695 5698 5702 5704 5707 5711 5713 5714 5714 5714 5714 5714 5714 5712 5710 5708 5706 5704 5701 5698 5694 5690 5686 5681 5675 5668 5661
5580 5587 5592 5599 5607 5612 5617 5629 5640 5645 5653 5658 5665 5672 5678 5683 5687 5690 5693 5697 5700 5704 5706 5707 5708 5707 5707 5707 5706 5705 5704 5702 5701 5699 5696 5692 5689 5685 5680 5675 5669 5662 5654 5645
5587 5594 5602 5607 5609 5617 5624 5632 5638 5644 5654 5658 5663 5669 5675 5679 5683 5686 5690 5694 5697 5699 5701 5701 5702 5701 5701 5700 5699 5698 5697 5694 5692 5689 5686 5683 5679 5674 5669 5663 5656 5648 5640 5631
5592 5599 5602 5604 5611 5621 5625 5633 5637 5646 5654 5659 5664 5667 5672 5675 5680 5684 5686 5688 5691 5692 5693 5694 5694 5693 5693 5692 5692 5690 5689 5686 5684 5681 5677 5674 5669 5664 5657 5651 5642 5634 5625 5615
5595 5597 5599 5606 5612 5621 5629 5635 5642 5648 5650 5656 5661 5666 5667 5671 5676 5679 5679 5684 5685 5685 5686 5686 5686 5686 5686 5685 5684 5683 5680 5678 5675 5672 5668 5663 5658 5652 5645 5637 5629 5620 5610 5600
5597 5601 5605 5610 5616 5622 5631 5636 5642 5646 5650 5656 5659 5665 5662 5666 5669 5672 5675 5677 5679 5680 5681 5680 5680 5680 5679 5678 5677 5675 5672 5669 5666 5662 5657 5653 5647 5640 5632 5624 5615 5605 5596 5586
5598 5603 5609 5613 5619 5623 5627 5632 5637 5641 5645 5649 5654 5658 5656 5661 5664 5667 5668 5670 5672 5673 5673 5672 5672 5672 5671 5670 5669 5666 5663 5660 5656 5652 5647 5642 5635 5627 5619 5610 5601 5591 5583 5573
5600 5604 5608 5612 5616 5621 5625 5629 5633 5637 5642 5644 5648 5651 5649 5657 5660 5660 5661 5664 5664 5665 5666 5666 5665 5664 5663 5662 5660 5657 5654 5650 5646 5641 5636 5630 5622 5614 5605 5597 5587 5579 5570 5559
5599 5604 5608 5611 5613 5618 5621 5625 5629 5633 5637 5640 5643 5646 5650 5652 5652 5655 5655 5656 5658 5658 5659 5659 5658 5657 5656 5653 5651 5648 5645 5641 5636 5631 5624 5617 5609 5601 5592 5583 5574 5565 5555 5545
5600 5603 5607 5609 5612 5616 5619 5621 5625 5631 5636 5634 5636 5640 5643 5645 5647 5649 5650 5650 5651 5652 5652 5652 5651 5649 5646 5644 5642 5638 5635 5630 5625 5619 5612 5605 5596 5587 5579 5570 5561 5552 5542 5530
5599 5601 5605 5608 5611 5615 5616 5619 5623 5626 5627 5630 5632 5634 5637 5639 5641 5642 5644 5645 5645 5646 5645 5644 5642 5640 5638 5635 5633 5629 5624 5619 5613 5607 5599 5592 5583 5575 5567 5558 5548 5537 5525 5513
5598 5601 5604 5608 5611 5612 5614 5616 5619 5621 5624 5627 5629 5631 5632 5634 5636 5637 5638 5639 5639 5638 5637 5636 5634 5632 5629 5626 5623 5618 5613 5608 5602 5595 5587 5580 5572 5564 5555 5545 5534 5521 5507 5494
5595 5597 5600 5604 5606 5609 5611 5613 5616 5618 5621 5623 5625 5626 5628 5629 5630 5631 5631 5631 5631 5630 5628 5627 5625 5623 5620 5616 5612 5608 5603 5597 5590 5583 5577 5570 5562 5552 5542 5530 5518 5505 5490 5477
5591 5594 5597 5600 5603 5605 5608 5610 5613 5615 5617 5619 5620 5622 5623 5623 5624 5624 5624 5623 5622 5621 5620 5618 5616 5613 5610 5606 5601 5597 5591 5585 5579 5573 5566 5558 5549 5540 5530 5517 5502 5488 5472 5454
5587 5591 5594 5596 5599 5602 5605 5607 5610 5612 5613 5615 5616 5617 5617 5617 5618 5617 5617 5616 5615 5613 5611 5609 5607 5603 5600 5596 5590 5585 5580 5574 5568 5561 5554 5546 5536 5526 5515 5503 5492 5472 5455 5438